Weather History for YBCG - July, 2013

Change the Weather History Date:

Wednesday, July 31, 2013

  Actual Average Record
Temperature  
Mean Temperature 61 °F -  
Max Temperature 68 °F - - ()
Min Temperature 54 °F - - ()
Degree Days  
Heating Degree Days 4    
Growing Degree Days 11 (Base 50)    
Moisture  
Dew Point 54 °F    
Average Humidity 72    
Maximum Humidity 94    
Minimum Humidity 49    
Precipitation  
Precipitation 0.01 in - - ()
Sea Level Pressure  
Sea Level Pressure 30.02 in    
Wind  
Wind Speed 10 mph ()    
Max Wind Speed 18 mph    
Max Gust Speed -    
Visibility 6.2 miles    
Events      
T = Trace of Precipitation, MM = Missing Value Source: Averaged Metar Reports

Daily Weather History Graph

Daily Weather History Graph

Search for Another Location

Airport or City:

Trip Planner

Search our weather history database for the weather conditions in past years. The results will help you decide how hot, cold, wet, or windy it might be!

Date:

Astronomy

Jul. 31, 2013 Rise Set
Actual Time 6:29 AM AEST 5:15 PM AEST
Civil Twilight 6:04 AM AEST 5:40 PM AEST
Nautical Twilight 5:36 AM AEST 6:08 PM AEST
Astronomical Twilight 5:08 AM AEST 6:36 PM AEST
Moon 12:50 AM AEST (7/31) 11:54 AM AEST (7/31)
Length of Visible Light 11h 36m
Length of Day
10h 46m
Last Quarter, 37% of the Moon is Illuminated
Jul 31
Last Quarter
Aug 7
New
Aug 14
First Quarter
Aug 21
Full
Aug 28
Last Quarter

Hourly Weather History & Observations

Time (AEST) Temp. Dew Point Humidity Pressure Visibility Wind Dir Wind Speed Gust Speed Precip Events Conditions
12:00 AM 55 °F 52 °F 86% 30.03 in - South 6.9 mph - -  
12:00 AM 55.4 °F 51.8 °F 88% 30.01 in 6.2 mi South 6.9 mph - N/A   Scattered Clouds
12:30 AM 55.4 °F 53.6 °F 94% 30.01 in 6.2 mi South 5.8 mph - N/A   Mostly Cloudy
1:00 AM 55.4 °F 51.8 °F 88% 30.01 in 6.2 mi South 6.9 mph - N/A   Scattered Clouds
1:30 AM 57.2 °F 51.8 °F 82% 29.98 in 6.2 mi South 9.2 mph - N/A   Unknown
2:00 AM 57.2 °F 51.8 °F 82% 29.98 in 6.2 mi South 10.4 mph - N/A   Unknown
2:30 AM 59.0 °F 51.8 °F 77% 29.98 in 6.2 mi South 10.4 mph - N/A   Unknown
3:00 AM 58 °F 53 °F 78% 30.00 in - South 9.2 mph - -  
3:00 AM 59.0 °F 53.6 °F 82% 29.98 in 6.2 mi South 9.2 mph - N/A   Unknown
3:30 AM 59.0 °F 53.6 °F 82% 29.98 in 6.2 mi SSW 8.1 mph - N/A   Scattered Clouds
4:00 AM 59.0 °F 53.6 °F 82% 29.98 in 6.2 mi SSW 10.4 mph - N/A   Unknown
4:30 AM 59.0 °F 53.6 °F 82% 29.98 in 6.2 mi SSW 9.2 mph - N/A   Unknown
5:00 AM 59.0 °F 51.8 °F 77% 30.01 in 6.2 mi SSW 11.5 mph - N/A   Unknown
5:30 AM 59.0 °F 51.8 °F 77% 30.01 in 6.2 mi SSW 8.1 mph - N/A   Unknown
6:00 AM 59 °F 52 °F 72% 30.03 in - SSW 11.5 mph - -  
6:00 AM 59.0 °F 51.8 °F 77% 30.01 in 6.2 mi SSW 11.5 mph - N/A   Unknown
6:30 AM 59.0 °F 51.8 °F 77% 30.01 in 6.2 mi SSW 10.4 mph - N/A   Scattered Clouds
7:00 AM 59.0 °F 51.8 °F 77% 30.01 in 6.2 mi SSW 12.7 mph - N/A   Unknown
7:30 AM 60.8 °F 53.6 °F 77% 30.04 in 6.2 mi South 11.5 mph - N/A   Unknown
8:00 AM 62.6 °F 51.8 °F 68% 30.04 in 6.2 mi SSW 12.7 mph - N/A   Unknown
8:30 AM 62.6 °F 53.6 °F 72% 30.04 in 6.2 mi SSW 13.8 mph - N/A   Unknown
9:00 AM 65 °F 54 °F 59% 30.06 in - South 13.8 mph - -  
9:00 AM 64.4 °F 53.6 °F 68% 30.04 in 6.2 mi South 13.8 mph - N/A   Scattered Clouds
9:30 AM 66.2 °F 55.4 °F 68% 30.04 in 6.2 mi South 15.0 mph - N/A   Scattered Clouds
10:00 AM 66.2 °F 55.4 °F 68% 30.04 in 6.2 mi SSW 16.1 mph - N/A   Scattered Clouds
10:30 AM 66.2 °F 55.4 °F 68% 30.04 in 6.2 mi South 13.8 mph - N/A   Scattered Clouds
11:00 AM 66.2 °F 55.4 °F 68% 30.04 in 6.2 mi South 18.4 mph - N/A   Mostly Cloudy
11:30 AM 66.2 °F 55.4 °F 68% 30.04 in 6.2 mi SSW 16.1 mph - N/A   Mostly Cloudy
12:00 PM 68 °F 55 °F 53% 30.03 in - South 13.8 mph - -  
12:00 PM 68.0 °F 55.4 °F 64% 30.01 in 6.2 mi South 13.8 mph - N/A   Scattered Clouds
12:30 PM 68.0 °F 53.6 °F 60% 30.01 in 6.2 mi South 13.8 mph - N/A   Scattered Clouds
1:00 PM 68.0 °F 55.4 °F 64% 30.01 in 6.2 mi SSW 13.8 mph - N/A   Mostly Cloudy
1:30 PM 68.0 °F 55.4 °F 64% 29.98 in 6.2 mi South 13.8 mph - N/A   Scattered Clouds
2:00 PM 68.0 °F 55.4 °F 64% 29.98 in 6.2 mi SW 13.8 mph - N/A   Scattered Clouds
2:30 PM 68.0 °F 53.6 °F 60% 29.98 in 6.2 mi South 15.0 mph - N/A   Scattered Clouds
3:00 PM 68 °F 53 °F 49% 30.00 in - South 16.1 mph - -  
3:00 PM 68.0 °F 53.6 °F 60% 29.98 in 6.2 mi South 16.1 mph - N/A   Unknown
3:30 PM 66.2 °F 53.6 °F 64% 30.01 in 6.2 mi South 15.0 mph - N/A   Scattered Clouds
4:00 PM 68.0 °F 55.4 °F 64% 30.01 in 6.2 mi South 10.4 mph - N/A   Scattered Clouds
4:30 PM 66.2 °F 53.6 °F 64% 30.01 in 6.2 mi South 12.7 mph - N/A   Scattered Clouds
5:00 PM 64.4 °F 53.6 °F 68% 30.04 in 6.2 mi South 11.5 mph - N/A   Mostly Cloudy
5:30 PM 62.6 °F 53.6 °F 72% 30.04 in 6.2 mi South 9.2 mph - N/A   Scattered Clouds
6:00 PM 62 °F 54 °F 68% 30.05 in - SSW 8.1 mph - -  
6:00 PM 62.6 °F 53.6 °F 72% 30.04 in 6.2 mi SSW 8.1 mph - N/A   Scattered Clouds
6:30 PM 62.6 °F 53.6 °F 72% 30.04 in 6.2 mi South 6.9 mph - N/A   Unknown
7:00 PM 62.6 °F 53.6 °F 72% 30.04 in 6.2 mi South 9.2 mph - N/A   Unknown
7:30 PM 60.8 °F 53.6 °F 77% 30.04 in 6.2 mi South 10.4 mph - N/A   Scattered Clouds
8:00 PM 62.6 °F 53.6 °F 72% 30.04 in 6.2 mi South 10.4 mph - N/A   Unknown
8:30 PM 62.6 °F 53.6 °F 72% 30.06 in 6.2 mi SSW 8.1 mph - N/A   Scattered Clouds
9:00 PM 61 °F 53 °F 68% 30.07 in - SSW 10.4 mph - -  
9:00 PM 60.8 °F 53.6 °F 77% 30.06 in 6.2 mi SSW 10.4 mph - N/A   Unknown
9:30 PM 62.6 °F 53.6 °F 72% 30.06 in 6.2 mi South 10.4 mph - N/A   Mostly Cloudy
10:00 PM 62.6 °F 53.6 °F 72% 30.06 in 6.2 mi South 9.2 mph - N/A   Overcast
10:30 PM 62.6 °F 53.6 °F 72% 30.06 in 6.2 mi South 8.1 mph - N/A   Overcast
11:00 PM 60.8 °F 53.6 °F 77% 30.06 in 6.2 mi South 11.5 mph - N/A   Overcast
11:30 PM 60.8 °F 53.6 °F 77% 30.06 in 6.2 mi SSW 11.5 mph - N/A   Mostly Cloudy